N1VL Weather Reports


Display with metric or nautical units.
time (UTC)temp
F
wind
direction
speed
MPH
gust
MPH
rain 1hr
in
rain 24hr
in
rain mn
in
humidity
%
barometer
mb
20260904203602 86 87 11.0 22.0 0.00 0.00 0.00 21 1015.0
20260904202702 85 90 11.0 22.0 0.00 0.00 0.00 22 1015.1
20260904201802 86 99 11.0 22.0 0.00 0.00 0.00 21 1015.1
20260904200903 85 97 8.0 25.0 0.00 0.00 0.00 23 1015.2
20260904200002 85 85 12.0 25.0 0.00 0.00 0.00 23 1015.4
20260904195402 84 86 13.0 22.0 0.00 0.00 0.00 24 1015.4
20260904194502 84 90 12.0 22.0 0.00 0.00 0.00 25 1015.5
20260904193602 84 87 13.0 29.0 0.00 0.00 0.00 23 1015.5
20260904192702 83 93 13.0 24.0 0.00 0.00 0.00 25 1015.8
20260904191802 82 88 13.0 24.0 0.00 0.00 0.00 26 1015.9
20260904190902 82 87 13.0 24.0 0.00 0.00 0.00 26 1016.0
20260904190003 82 91 12.0 24.0 0.00 0.00 0.00 26 1016.1
20260904185402 82 89 13.0 22.0 0.00 0.00 0.00 27 1016.1
20260904184524 81 92 12.0 21.0 0.00 0.00 0.00 26 1016.3
20260904183624 81 88 13.0 23.0 0.00 0.00 0.00 26 1016.5
20260904182702 81 91 12.0 21.0 0.00 0.00 0.00 29 1016.5
20260904181824 80 87 13.0 22.0 0.00 0.00 0.00 29 1016.6
20260904180902 80 88 12.0 24.0 0.00 0.00 0.00 30 1016.7
20260904180002 80 86 13.0 23.0 0.00 0.00 0.00 29 1016.8
20260904175402 80 86 12.0 23.0 0.00 0.00 0.00 29 1016.8
20260904174523 79 83 12.0 23.0 0.00 0.00 0.00 30 1016.9
20260904173602 79 77 12.0 25.0 0.00 0.00 0.00 30 1017.0
20260904172702 78 92 9.0 19.0 0.00 0.00 0.00 31 1017.0
20260904171803 76 123 6.0 11.0 0.00 0.00 0.00 37 1017.1
20260904170902 76 122 7.0 12.0 0.00 0.00 0.00 37 1017.1
20260904170003 76 122 6.0 12.0 0.00 0.00 0.00 35 1017.1
20260904165402 76 129 6.0 12.0 0.00 0.00 0.00 36 1017.2
20260904164502 75 133 6.0 13.0 0.00 0.00 0.00 37 1017.1
20260904163603 75 140 8.0 13.0 0.00 0.00 0.00 36 1017.3
20260904162702 74 100 6.0 18.0 0.00 0.00 0.00 34 1017.3
20260904161802 73 65 10.0 18.0 0.00 0.00 0.00 36 1017.3
20260904160902 73 80 10.0 16.0 0.00 0.00 0.00 41 1017.2
20260904160002 72 79 11.0 16.0 0.00 0.00 0.00 40 1017.2
20260904155402 72 83 9.0 16.0 0.00 0.00 0.00 40 1017.1
20260904154503 71 78 9.0 16.0 0.00 0.00 0.00 43 1017.0
20260904153603 70 90 7.0 13.0 0.00 0.00 0.00 43 1017.1
20260904152702 70 97 6.0 10.0 0.00 0.00 0.00 42 1017.0
20260904151802 69 101 5.0 11.0 0.00 0.00 0.00 42 1017.1
20260904150923 68 107 6.0 11.0 0.00 0.00 0.00 43 1017.1
20260904150024 67 103 5.0 11.0 0.00 0.00 0.00 46 1017.1
20260904145423 66 102 5.0 11.0 0.00 0.00 0.00 47 1017.1
20260904144503 65 102 4.0 9.0 0.00 0.00 0.00 50 1017.0
20260904143623 64 105 2.0 7.0 0.00 0.00 0.00 51 1017.0
20260904142723 64 104 2.0 6.0 0.00 0.00 0.00 51 1017.0
20260904141802 63 113 1.0 5.0 0.00 0.00 0.00 52 1017.0
20260904140902 62 106 2.0 6.0 0.00 0.00 0.00 52 1016.9
20260904140002 62 121 0.0 6.0 0.00 0.00 0.00 52 1016.8
20260904135402 62 121 1.0 6.0 0.00 0.00 0.00 52 1016.8
20260904134503 62 108 3.0 7.0 0.00 0.00 0.00 52 1016.7
20260904133603 62 124 3.0 7.0 0.00 0.00 0.00 53 1016.6
20260904132702 62 126 3.0 8.0 0.00 0.00 0.00 54 1016.3
20260904131803 62 91 4.0 8.0 0.00 0.00 0.00 53 1016.2
20260904130923 63 125 4.0 9.0 0.00 0.00 0.00 54 1015.9
20260904130003 64 118 3.0 6.0 0.00 0.00 0.00 52 1015.9
20260904125403 65 107 3.0 9.0 0.00 0.00 0.00 51 1015.9
20260904124523 66 109 5.0 10.0 0.00 0.00 0.00 46 1015.8
20260904123602 66 93 6.0 10.0 0.00 0.00 0.00 38 1015.5
20260904122724 67 119 5.0 12.0 0.00 0.00 0.00 35 1015.4
20260904121803 69 96 6.0 12.0 0.00 0.00 0.00 26 1015.3
20260904120923 69 98 6.0 13.0 0.00 0.00 0.00 27 1015.2
20260904120002 69 101 6.0 11.0 0.00 0.00 0.00 26 1015.2
20260904115423 69 102 6.0 11.0 0.00 0.00 0.00 26 1015.1
20260904114502 69 98 7.0 14.0 0.00 0.00 0.00 28 1015.0
20260904113602 69 92 8.0 14.0 0.00 0.00 0.00 28 1015.0
20260904112723 70 92 7.0 13.0 0.00 0.00 0.00 27 1014.9
20260904111802 71 99 7.0 15.0 0.00 0.00 0.00 23 1014.9
20260904110902 71 98 8.0 22.0 0.00 0.00 0.00 21 1014.8
20260904110003 71 96 8.0 22.0 0.00 0.00 0.00 21 1014.8
20260904105402 72 91 11.0 22.0 0.00 0.00 0.00 21 1014.7
20260904104523 72 93 9.0 19.0 0.00 0.00 0.00 20 1014.5
20260904103602 73 98 9.0 19.0 0.00 0.00 0.00 19 1014.5
20260904102702 73 98 9.0 18.0 0.00 0.00 0.00 19 1014.4
20260904100902 73 98 9.0 18.0 0.00 0.00 0.00 19 1014.3
20260904100002 72 94 9.0 18.0 0.00 0.00 0.00 19 1014.2
20260904095402 72 87 10.0 21.0 0.00 0.00 0.00 19 1014.2
20260904094502 72 82 12.0 21.0 0.00 0.00 0.00 21 1014.1
20260904092702 71 79 10.0 18.0 0.00 0.00 0.00 22 1014.0
20260904091803 71 82 11.0 18.0 0.00 0.00 0.00 23 1014.0
20260904090923 70 84 10.0 15.0 0.00 0.00 0.00 24 1014.0
20260904090003 70 85 10.0 15.0 0.00 0.00 0.00 24 1014.0
20260904085403 70 84 10.0 15.0 0.00 0.00 0.00 25 1014.0
20260904084503 71 86 10.0 15.0 0.00 0.00 0.00 25 1014.0
20260904083623 71 89 10.0 16.0 0.00 0.00 0.00 23 1013.9
20260904082702 71 91 10.0 16.0 0.00 0.00 0.00 24 1013.8
20260904081802 70 84 10.0 16.0 0.00 0.00 0.00 25 1013.7
20260904080902 71 87 9.0 16.0 0.00 0.00 0.00 24 1013.7
20260904080002 71 94 8.0 15.0 0.00 0.00 0.00 23 1013.8
20260904075424 71 92 8.0 13.0 0.00 0.00 0.00 23 1013.7
20260904074523 72 94 8.0 12.0 0.00 0.00 0.00 24 1013.6
20260904073624 72 97 8.0 12.0 0.00 0.00 0.00 25 1013.6
20260904072702 72 97 7.0 15.0 0.00 0.00 0.00 26 1013.6
20260904071823 72 98 8.0 15.0 0.00 0.00 0.00 27 1013.5
20260904070902 73 98 7.0 15.0 0.00 0.00 0.00 28 1013.4
20260904070002 74 103 8.0 16.0 0.00 0.00 0.00 26 1013.4
20260904065403 74 103 8.0 16.0 0.00 0.00 0.00 23 1013.4
20260904064503 74 108 8.0 16.0 0.00 0.00 0.00 22 1013.3
20260904063602 74 103 8.0 15.0 0.00 0.00 0.00 23 1013.1
20260904062702 74 105 7.0 15.0 0.00 0.00 0.00 23 1013.1
20260904061802 74 103 8.0 15.0 0.00 0.00 0.00 24 1012.9
20260904060924 74 100 7.0 15.0 0.00 0.00 0.00 25 1012.9
20260904060003 74 98 8.0 18.0 0.00 0.00 0.00 24 1012.9
20260904055402 74 93 8.0 18.0 0.00 0.00 0.00 25 1012.8
20260904054502 74 92 9.0 18.0 0.00 0.00 0.00 26 1012.8
20260904053602 74 93 8.0 14.0 0.00 0.00 0.00 26 1012.7
20260904052702 75 93 8.0 14.0 0.00 0.00 0.00 24 1012.8
20260904051802 75 93 8.0 16.0 0.00 0.00 0.00 24 1012.8
20260904050903 75 88 9.0 20.0 0.00 0.00 0.00 23 1012.8
20260904050003 76 85 12.0 20.0 0.00 0.00 0.00 24 1012.7
20260904045403 76 87 11.0 20.0 0.00 0.00 0.00 23 1012.8
20260904044502 76 87 11.0 20.0 0.00 0.00 0.00 24 1012.8
20260904043602 76 86 10.0 19.0 0.00 0.00 0.00 24 1012.7
20260904042702 75 87 8.0 15.0 0.00 0.00 0.00 26 1012.7
20260904041802 75 94 6.0 14.0 0.00 0.00 0.00 26 1012.8
20260904040902 75 91 8.0 12.0 0.00 0.00 0.00 27 1012.8
20260904040002 75 93 7.0 13.0 0.00 0.00 0.00 27 1012.6
20260904035402 75 95 6.0 13.0 0.00 0.00 0.00 29 1012.6
20260904034502 75 91 7.0 13.0 0.00 0.00 0.00 31 1012.6
20260904033603 76 89 7.0 13.0 0.00 0.00 0.00 30 1012.4
20260904032703 78 97 4.0 10.0 0.00 0.00 0.00 24 1012.5
20260904031802 78 128 6.0 13.0 0.00 0.00 0.00 18 1012.4
20260904030902 79 139 7.0 15.0 0.00 0.00 0.00 18 1012.2
20260904030002 78 143 7.0 18.0 0.00 0.00 0.00 18 1012.1
20260904025402 79 149 6.0 12.0 0.00 0.00 0.00 18 1012.0
20260904024503 79 158 8.0 19.0 0.00 0.00 0.00 18 1011.9
20260904023602 79 145 8.0 19.0 0.00 0.00 0.00 18 1011.9
20260904022702 79 140 8.0 15.0 0.00 0.00 0.00 18 1012.0
20260904021824 79 136 7.0 11.0 0.00 0.00 0.00 18 1011.9
20260904020903 79 131 7.0 15.0 0.00 0.00 0.00 18 1011.9
20260904020024 80 134 8.0 15.0 0.00 0.00 0.00 18 1011.8
20260904015402 80 133 8.0 11.0 0.00 0.00 0.00 17 1011.8
20260904014502 81 139 9.0 16.0 0.00 0.00 0.00 17 1011.9
20260904013602 81 134 9.0 20.0 0.00 0.00 0.00 17 1011.9
20260904012703 82 137 9.0 20.0 0.00 0.00 0.00 17 1011.9
20260904011803 82 133 10.0 23.0 0.00 0.00 0.00 17 1012.0
20260904010903 83 134 11.0 20.0 0.00 0.00 0.00 17 1012.1
20260904010023 83 135 10.0 20.0 0.00 0.00 0.00 18 1012.2
20260904005403 82 131 9.0 20.0 0.00 0.00 0.00 18 1012.2
20260904004502 82 135 9.0 19.0 0.00 0.00 0.00 18 1012.2
20260904003602 84 127 7.0 14.0 0.00 0.00 0.00 20 1012.3
20260904002703 84 118 9.0 15.0 0.00 0.00 0.00 18 1012.2
20260904001802 85 106 8.0 15.0 0.00 0.00 0.00 18 1012.2
20260904000902 85 101 6.0 14.0 0.00 0.00 0.00 17 1012.2
20260904000003 85 98 8.0 18.0 0.00 0.00 0.00 17 1012.2
20260903235423 85 95 11.0 23.0 0.00 0.00 0.00 16 1012.2
20260903234503 85 99 9.0 19.0 0.00 0.00 0.00 17 1012.2
20260903233603 85 100 7.0 18.0 0.00 0.00 0.00 16 1012.3
20260903232703 85 96 9.0 18.0 0.00 0.00 0.00 17 1012.4
20260903231802 85 94 10.0 21.0 0.00 0.00 0.00 15 1012.5
20260903230902 85 90 11.0 20.0 0.00 0.00 0.00 17 1012.6
20260903230002 85 90 10.0 21.0 0.00 0.00 0.00 17 1012.7
20260903225403 85 98 8.0 16.0 0.00 0.00 0.00 17 1012.8
20260903224502 85 90 11.0 21.0 0.00 0.00 0.00 16 1012.9